Location: Peterborough
(44.3091°N, 78.3197°W)
Time: 16:46:18
(UTC-04:00)

Transit 4A - Pass Details

Date: 31 March 2023
Orbit: 864 x 980 km, 66.8° (Epoch: 04 June)

Event Time Altitude Azimuth Distance (km) Brightness Sun altitude
Rises 06:09:27 0° 206° (SSW) 3,430 10.5 -9.1°
Reaches altitude 10° 06:11:53 10° 206° (SSW) 2,500 9.8 -8.7°
Maximum altitude 06:17:39 81° 120° (ESE) 891 7.9 -7.7°
Drops below altitude 10° 06:23:35 10° 34° (NNE) 2,565 11.0 -6.7°
Sets 06:26:07 0° 33° (NNE) 3,525 11.7 -6.2°
